Location: *
(28.3744°N, 81.5492°W)
Time: 14:15:20
(UTC+00:00)

NOSS 3-1 (A) - Pass Details

Date: 15 June 2025
Orbit: 639 x 1568 km, 63.4° (Epoch: 21 June)

Event Time Altitude Azimuth Distance (km) Brightness Sun altitude
Rises 06:32:28 0° 328° (NNW) 4,115 7.2 -35.9°
Reaches altitude 10° 06:35:03 10° 326° (NW) 3,265 6.6 -35.7°
Enters shadow 06:41:50 62° 292° (WNW) 1,575 4.4 -35.2°
